Home   Weather   Gary   Past weeks

Flag for USA Past Weather in Gary, Indiana, USA — Yesterday and Last 2 Weeks

Now
59 °F

Clear.


Feels Like: 57 °F
Forecast: 52 / 62 °F
Wind: 12 mph from Southeast

Location: Lansing Municipal Airport

Current Time: Feb 20, 2017 at 9:40:20 pm

Latest Report: Feb 20, 2017 at 8:55 pm


Visibility: 10 mi

Pressure: 29.96 "Hg

Humidity: 66%

Dew Point: 48 °F

Location of GaryLocation

Past Weather in Gary — Graph

°F

Gary Temperature Yesterday

Maximum temperature yesterday: 65 °F (at 2:35 pm)
Minimum temperature yesterday: 31 °F (at 4:55 am)
Average temperature yesterday: 48 °F

High & Low Weather Summary for the Past Weeks

 TemperatureHumidityPressure
High67 °F (Feb 20, 2:15 pm)100% (Feb 6, 5:15 pm)30.36 "Hg (Feb 6, 5:15 pm)
Low14 °F (Feb 9, 10:35 pm)34% (Feb 12, 4:15 pm)29.31 "Hg (Feb 7, 11:55 am)
Average38 °F75%29.92 "Hg
* Reported Feb 5 8:15 pm — Feb 20 8:15 pm, Gary, Weather by CustomWeather, © 2017

Note: Actual official high and low records may vary slightly from our data, if they occured in-between our weather recording intervals... More about our weather records

Advertising

Gary Weather History for the Previous 24 Hours

Scroll right to see more
 ConditionsComfort  
Time TempWeatherWind HumidityBarometerVisibility
8:15 pm
Mon, Feb 20
59 °FClear.12 mph66%29.97 "Hg10 mi
7:55 pm59 °FClear.14 mph65%29.97 "Hg10 mi
7:35 pm59 °FClear.15 mph64%29.98 "Hg10 mi
7:15 pm60 °FClear.14 mph64%29.99 "Hg10 mi
6:55 pm60 °FClear.12 mph64%29.99 "Hg10 mi
6:35 pm60 °FClear.12 mph63%30.00 "Hg10 mi
6:15 pm61 °FClear.12 mph63%30.00 "Hg10 mi
5:55 pm61 °FClear.10 mph62%30.00 "Hg10 mi
5:35 pm61 °FClear.13 mph62%29.99 "Hg10 mi
5:15 pm62 °FClear.12 mph61%30.00 "Hg10 mi
4:55 pm63 °FClear.10 mph59%30.01 "Hg10 mi
4:35 pm64 °FClear.13 mph58%30.01 "Hg10 mi
4:15 pm65 °FSunny.15 mph57%30.00 "Hg10 mi
3:55 pm65 °FSunny.14 mph56%30.00 "Hg10 mi
3:35 pm65 °FSunny.12 mph56%30.01 "Hg10 mi
3:15 pm66 °FSunny.14 mph56%30.01 "Hg10 mi
2:55 pm66 °FSunny.15 mph55%30.02 "Hg10 mi
2:35 pm67 °FSunny.17 mph54%30.02 "Hg10 mi
2:15 pm67 °FSunny.17 mph54%30.03 "Hg10 mi
1:55 pm67 °FSunny.14 mph56%30.04 "Hg10 mi
1:35 pm66 °FSunny.14 mph56%30.05 "Hg10 mi
12:55 pm65 °FSunny.14 mph57%30.06 "Hg10 mi
12:35 pm65 °FSunny.13 mph58%30.07 "Hg10 mi
11:55 am64 °FSunny.16 mph59%30.09 "Hg10 mi
11:35 am64 °FSunny.13 mph60%30.09 "Hg10 mi
11:15 am62 °FSunny.15 mph65%30.11 "Hg10 mi
10:55 am60 °FSunny.12 mph68%30.12 "Hg10 mi
10:35 am59 °FSunny.9 mph73%30.13 "Hg10 mi
10:15 am58 °FSunny.10 mph76%30.15 "Hg10 mi
9:55 am56 °FSunny.10 mph80%30.15 "Hg7 mi
9:35 am54 °FSunny.7 mph85%30.15 "Hg7 mi
9:15 am53 °FSunny.8 mph88%30.14 "Hg7 mi
8:55 am52 °FFog.10 mph90%30.15 "Hg5 mi
8:35 am50 °FFog.8 mph94%30.14 "Hg4 mi
8:15 am48 °FFog.6 mph97%30.15 "Hg3 mi
7:55 am47 °FFog.6 mph99%30.16 "Hg3 mi
7:35 am46 °FFog.5 mph100%30.16 "Hg2 mi
7:15 am45 °FFog.6 mph100%30.16 "Hg2 mi
6:55 am44 °FFog.6 mph100%30.15 "Hg2 mi
6:35 am43 °FFog.5 mph100%30.15 "Hg4 mi
6:15 am43 °FFog.3 mph100%30.15 "Hg4 mi
5:55 am42 °FFog.3 mph99%30.14 "Hg4 mi
5:35 am43 °FFog.3 mph100%30.14 "Hg4 mi
4:55 am42 °FFog.No wind99%30.13 "Hg4 mi
4:35 am43 °FFog.No wind98%30.13 "Hg5 mi
4:15 am42 °FFog.5 mph98%30.13 "Hg5 mi
3:55 am39 °FFog.3 mph98%30.13 "Hg4 mi
3:35 am42 °FFog.5 mph97%30.13 "Hg5 mi
3:15 am44 °FClear.5 mph94%30.13 "Hg7 mi
2:55 am43 °FClear.5 mph97%30.13 "Hg7 mi
2:35 am42 °FClear.3 mph98%30.13 "Hg7 mi
2:15 am42 °FClear.No wind98%30.14 "Hg7 mi
1:55 am42 °FClear.No wind96%30.14 "Hg7 mi
1:35 am42 °FClear.No wind95%30.14 "Hg7 mi
1:15 am44 °FClear.No wind93%30.14 "Hg7 mi
12:55 am43 °FClear.No wind95%30.14 "Hg7 mi
12:35 am43 °FClear.3 mph91%30.14 "Hg10 mi
12:15 am44 °FClear.No wind89%30.13 "Hg10 mi
11:55 pm
Sun, Feb 19
46 °FClear.No wind85%30.13 "Hg10 mi
11:35 pm44 °FClear.3 mph89%30.12 "Hg10 mi
11:15 pm46 °FClear.3 mph85%30.13 "Hg10 mi
10:55 pm46 °FClear.No wind84%30.13 "Hg10 mi
10:35 pm46 °FClear.No wind86%30.12 "Hg10 mi
10:15 pm45 °FClear.3 mph86%30.11 "Hg10 mi
9:55 pm46 °FClear.No wind84%30.11 "Hg10 mi
9:35 pm45 °FClear.3 mph86%30.11 "Hg10 mi
9:15 pm46 °FClear.3 mph85%30.11 "Hg10 mi
Weather by CustomWeather, © 2017

See weather overviewHow to use our weather pages